Terminal Aerodrome Forecast
Issued by NWS

Home | Current Version | Previous Version | Text Only | Print | Product List | Glossary Off
Versions: 1 2 3 4 5 6 7 8 9 10 11 12

000
FTUS45 KGGW 181700
TAFGDV
TAF
KGDV 181740Z 1818/1918 13013KT P6SM BKN110
     FM182100 24010KT P6SM -SHRA BKN080
     FM190100 28015KT P6SM SCT100
      AMD LTD TO CLD VIS AND WIND=

USA.gov is the U.S. government's official web portal to all federal, state and local government web resources and services.